QFA581 YBHM-YBBN

Flight info

Callsign QFA581
Flight time 1h 20m
Altitude 37000
Route OVRON B462 MK V153 MUNAR Y61 RUROX Y177 BN
Aircraft B738/M-SDE2E3FGHIRWXY/LB1

Departure

Time 2026-05-05 08:00
Airport Hamilton Island Airport (YBHM)

Arrival

Time 2026-05-05 09:21
Airport Brisbane International Airport (YBBN)
Time Latitude Longitude Altitude Speed Heading
2026-05-05 07:43 -20.35222 148.94898 19 ft 0 kts 310°
2026-05-05 07:57 -20.35221 148.94897 19 ft 0 kts 310°
2026-05-05 07:57 -20.35217 148.94886 20 ft 3 kts 283°
2026-05-05 07:58 -20.35231 148.94853 20 ft 7 kts 231°
2026-05-05 07:58 -20.35258 148.94800 20 ft 10 kts 265°
2026-05-05 07:58 -20.35213 148.94737 19 ft 13 kts 324°
2026-05-05 07:58 -20.35135 148.94692 18 ft 13 kts 355°
2026-05-05 07:59 -20.35084 148.94677 18 ft 8 kts 296°
2026-05-05 07:59 -20.35116 148.94652 19 ft 7 kts 152°
2026-05-05 07:59 -20.35151 148.94687 18 ft 0 kts 142°
2026-05-05 08:00 -20.35179 148.94709 20 ft 29 kts 142°
2026-05-05 08:00 -20.35603 148.95049 23 ft 120 kts 143°
2026-05-05 08:00 -20.36419 148.95691 426 ft 159 kts 146°
2026-05-05 08:00 -20.37373 148.96161 1677 ft 151 kts 167°
2026-05-05 08:01 -20.38468 148.96320 2460 ft 169 kts 166°
2026-05-05 08:01 -20.39733 148.96642 2829 ft 204 kts 163°
2026-05-05 08:01 -20.41213 148.97058 3062 ft 236 kts 165°
2026-05-05 08:01 -20.42886 148.97525 3594 ft 256 kts 163°
2026-05-05 08:02 -20.44614 148.98016 4643 ft 257 kts 163°
2026-05-05 08:02 -20.46355 148.98510 5611 ft 262 kts 163°
2026-05-05 08:02 -20.48107 148.99006 6563 ft 266 kts 162°
2026-05-05 08:02 -20.49923 148.99521 7369 ft 275 kts 163°
2026-05-05 08:03 -20.51801 149.00053 8169 ft 283 kts 163°
2026-05-05 08:03 -20.53730 149.00600 9001 ft 290 kts 163°
2026-05-05 08:03 -20.55717 149.01164 9730 ft 301 kts 163°
2026-05-05 08:03 -20.57774 149.01747 10378 ft 313 kts 165°
2026-05-05 08:04 -20.59964 149.02367 10614 ft 339 kts 165°
2026-05-05 08:04 -20.62327 149.03037 10794 ft 363 kts 165°
2026-05-05 08:04 -20.64847 149.03751 10989 ft 384 kts 165°
2026-05-05 08:04 -20.67426 149.04482 11472 ft 393 kts 165°
2026-05-05 08:05 -20.70087 149.05238 12039 ft 399 kts 166°
2026-05-05 08:05 -20.72788 149.06005 12641 ft 403 kts 166°
2026-05-05 08:05 -20.75514 149.06779 13217 ft 409 kts 166°
2026-05-05 08:05 -20.78286 149.07567 13749 ft 415 kts 166°
2026-05-05 08:06 -20.81097 149.08367 14263 ft 420 kts 166°
2026-05-05 08:06 -20.83926 149.09173 14825 ft 422 kts 167°
2026-05-05 08:06 -20.86774 149.09984 15374 ft 425 kts 167°
2026-05-05 08:06 -20.89638 149.10800 15891 ft 429 kts 167°
2026-05-05 08:07 -20.92495 149.11614 16396 ft 432 kts 167°
2026-05-05 08:07 -20.95414 149.12446 16916 ft 436 kts 167°
2026-05-05 08:07 -20.98356 149.13285 17433 ft 439 kts 167°
2026-05-05 08:07 -21.01325 149.14132 17917 ft 444 kts 167°
2026-05-05 08:08 -21.04321 149.14987 18387 ft 447 kts 167°
2026-05-05 08:08 -21.07337 149.15849 18820 ft 451 kts 167°
2026-05-05 08:08 -21.10377 149.16719 19244 ft 454 kts 167°
2026-05-05 08:08 -21.13439 149.17594 19657 ft 457 kts 168°
2026-05-05 08:09 -21.16483 149.18464 20063 ft 460 kts 168°
2026-05-05 08:09 -21.19586 149.19362 20484 ft 464 kts 167°
2026-05-05 08:09 -21.22706 149.20290 20885 ft 467 kts 167°
2026-05-05 08:09 -21.25845 149.21235 21279 ft 470 kts 167°
2026-05-05 08:10 -21.29005 149.22188 21670 ft 473 kts 167°
2026-05-05 08:10 -21.32189 149.23146 22047 ft 477 kts 167°
2026-05-05 08:10 -21.35397 149.24109 22425 ft 480 kts 167°
2026-05-05 08:10 -21.38625 149.25077 22790 ft 483 kts 167°
2026-05-05 08:11 -21.41832 149.26038 23131 ft 487 kts 167°
2026-05-05 08:11 -21.45107 149.27020 23509 ft 489 kts 167°
2026-05-05 08:11 -21.48387 149.28004 23821 ft 491 kts 167°
2026-05-05 08:11 -21.51674 149.29092 24106 ft 496 kts 164°
2026-05-05 08:12 -21.54920 149.30377 24386 ft 499 kts 162°
2026-05-05 08:12 -21.58158 149.31757 24664 ft 502 kts 161°
2026-05-05 08:12 -21.61402 149.33175 24944 ft 505 kts 161°
2026-05-05 08:12 -21.64663 149.34601 25226 ft 507 kts 161°
2026-05-05 08:13 -21.67900 149.36004 25484 ft 510 kts 161°
2026-05-05 08:13 -21.71201 149.37416 25732 ft 512 kts 161°
2026-05-05 08:13 -21.74527 149.38827 25978 ft 515 kts 162°
2026-05-05 08:13 -21.77869 149.40236 26237 ft 517 kts 162°
2026-05-05 08:14 -21.81222 149.41646 26491 ft 519 kts 162°
2026-05-05 08:14 -21.84593 149.43063 26726 ft 521 kts 162°
2026-05-05 08:14 -21.87978 149.44486 26962 ft 523 kts 162°
2026-05-05 08:14 -21.91376 149.45916 27196 ft 526 kts 162°
2026-05-05 08:15 -21.94788 149.47355 27404 ft 529 kts 162°
2026-05-05 08:15 -21.98174 149.48783 27615 ft 531 kts 162°
2026-05-05 08:15 -22.01617 149.50237 27837 ft 532 kts 162°
2026-05-05 08:15 -22.05072 149.51698 28057 ft 534 kts 162°
2026-05-05 08:16 -22.08538 149.53163 28288 ft 536 kts 162°
2026-05-05 08:16 -22.12007 149.54632 28584 ft 535 kts 162°
2026-05-05 08:16 -22.15472 149.56099 28930 ft 534 kts 162°
2026-05-05 08:16 -22.18931 149.57565 29268 ft 534 kts 163°
2026-05-05 08:17 -22.22390 149.59031 29583 ft 535 kts 163°
2026-05-05 08:17 -22.25858 149.60501 29844 ft 536 kts 163°
2026-05-05 08:17 -22.29276 149.61950 30154 ft 536 kts 163°
2026-05-05 08:17 -22.32742 149.63421 30483 ft 534 kts 163°
2026-05-05 08:18 -22.36197 149.64889 30844 ft 533 kts 163°
2026-05-05 08:18 -22.39642 149.66353 31193 ft 532 kts 163°
2026-05-05 08:18 -22.43082 149.67815 31528 ft 531 kts 163°
2026-05-05 08:18 -22.46517 149.69276 31857 ft 530 kts 163°
2026-05-05 08:19 -22.49949 149.70736 32201 ft 530 kts 163°
2026-05-05 08:19 -22.53375 149.72194 32570 ft 529 kts 163°
2026-05-05 08:19 -22.56748 149.73631 32928 ft 528 kts 164°
2026-05-05 08:19 -22.60160 149.75085 33300 ft 526 kts 164°
2026-05-05 08:20 -22.63564 149.76537 33672 ft 525 kts 164°
2026-05-05 08:20 -22.66960 149.77986 34038 ft 524 kts 164°
2026-05-05 08:20 -22.70351 149.79433 34333 ft 524 kts 164°
2026-05-05 08:20 -22.73744 149.80881 34581 ft 525 kts 164°
2026-05-05 08:21 -22.77142 149.82332 34837 ft 525 kts 164°
2026-05-05 08:21 -22.80541 149.83784 35113 ft 525 kts 164°
2026-05-05 08:21 -22.83930 149.85234 35397 ft 525 kts 164°
2026-05-05 08:21 -22.87331 149.86689 35626 ft 526 kts 164°
2026-05-05 08:22 -22.90735 149.88147 35881 ft 526 kts 164°
2026-05-05 08:22 -22.94091 149.89585 36183 ft 525 kts 165°
2026-05-05 08:22 -22.97480 149.91039 36517 ft 523 kts 165°
2026-05-05 08:22 -23.00861 149.92489 36804 ft 522 kts 165°
2026-05-05 08:23 -23.04243 149.93937 37003 ft 523 kts 165°
2026-05-05 08:23 -23.07645 149.95395 37003 ft 528 kts 165°
2026-05-05 08:23 -23.14477 149.98332 37037 ft 528 kts 165°
2026-05-05 08:24 -23.21298 150.01270 37018 ft 526 kts 165°
2026-05-05 08:24 -23.28053 150.04181 37010 ft 525 kts 165°
2026-05-05 08:25 -23.34837 150.07106 37018 ft 524 kts 165°
2026-05-05 08:25 -23.41605 150.10026 37005 ft 524 kts 165°
2026-05-05 08:26 -23.48379 150.12953 37007 ft 524 kts 165°
2026-05-05 08:26 -23.55120 150.15868 37012 ft 525 kts 165°
2026-05-05 08:27 -23.61909 150.18808 37024 ft 525 kts 165°
2026-05-05 08:27 -23.68702 150.21752 37008 ft 526 kts 165°
2026-05-05 08:28 -23.75512 150.24708 37027 ft 527 kts 165°
2026-05-05 08:28 -23.82289 150.27653 37011 ft 528 kts 165°
2026-05-05 08:29 -23.89127 150.30627 37019 ft 529 kts 165°
2026-05-05 08:30 -23.99404 150.35105 37010 ft 531 kts 165°
2026-05-05 08:30 -24.06268 150.38099 37029 ft 531 kts 165°
2026-05-05 08:31 -24.13095 150.41081 37014 ft 532 kts 165°
2026-05-05 08:31 -24.19970 150.44088 37024 ft 532 kts 165°
2026-05-05 08:32 -24.26843 150.47098 37020 ft 532 kts 165°
2026-05-05 08:32 -24.33711 150.50108 37019 ft 531 kts 165°
2026-05-05 08:33 -24.40529 150.53100 37028 ft 531 kts 165°
2026-05-05 08:33 -24.47378 150.56112 37021 ft 531 kts 164°
2026-05-05 08:34 -24.53915 150.60042 37046 ft 540 kts 151°
2026-05-05 08:34 -24.60141 150.64685 37034 ft 541 kts 150°
2026-05-05 08:35 -24.66353 150.69345 37033 ft 540 kts 151°
2026-05-05 08:35 -24.72546 150.73912 37036 ft 539 kts 151°
2026-05-05 08:36 -24.78789 150.78478 37033 ft 538 kts 152°
2026-05-05 08:36 -24.85028 150.83042 37033 ft 538 kts 151°
2026-05-05 08:37 -24.91218 150.87582 37039 ft 538 kts 151°
2026-05-05 08:37 -24.97435 150.92151 37043 ft 537 kts 151°
2026-05-05 08:38 -25.03657 150.96731 37048 ft 538 kts 151°
2026-05-05 08:38 -25.09885 151.01318 37046 ft 538 kts 152°
2026-05-05 08:39 -25.16132 151.05860 37032 ft 538 kts 152°
2026-05-05 08:39 -25.22349 151.10457 37035 ft 538 kts 152°
2026-05-05 08:40 -25.28524 151.15043 37033 ft 538 kts 152°
2026-05-05 08:40 -25.34746 151.19658 37046 ft 539 kts 152°
2026-05-05 08:41 -25.40983 151.24283 37039 ft 540 kts 152°
2026-05-05 08:41 -25.47220 151.28914 37041 ft 541 kts 152°
2026-05-05 08:42 -25.53428 151.33534 37034 ft 542 kts 152°
2026-05-05 08:42 -25.59682 151.38194 37034 ft 542 kts 152°
2026-05-05 08:43 -25.65934 151.42859 37047 ft 542 kts 152°
2026-05-05 08:43 -25.72182 151.47527 37031 ft 542 kts 152°
2026-05-05 08:44 -25.78149 151.52594 37057 ft 546 kts 143°
2026-05-05 08:44 -25.83794 151.58265 37036 ft 548 kts 141°
2026-05-05 08:45 -25.89407 151.63985 37034 ft 547 kts 142°
2026-05-05 08:45 -25.95052 151.69648 37027 ft 547 kts 142°
2026-05-05 08:46 -26.00718 151.75281 37047 ft 546 kts 142°
2026-05-05 08:46 -26.06346 151.80877 37034 ft 546 kts 142°
2026-05-05 08:47 -26.12001 151.86515 37045 ft 546 kts 142°
2026-05-05 08:47 -26.17649 151.92157 37049 ft 545 kts 142°
2026-05-05 08:48 -26.23285 151.97797 37051 ft 545 kts 142°
2026-05-05 08:48 -26.28883 152.03407 37026 ft 545 kts 142°
2026-05-05 08:49 -26.34511 152.09055 37052 ft 544 kts 142°
2026-05-05 08:49 -26.40138 152.14710 37058 ft 544 kts 142°
2026-05-05 08:50 -26.45762 152.20370 37048 ft 544 kts 142°
2026-05-05 08:50 -26.51382 152.26035 37047 ft 544 kts 141°
2026-05-05 08:51 -26.56954 152.31658 37062 ft 544 kts 142°
2026-05-05 08:51 -26.62563 152.37337 37066 ft 544 kts 142°
2026-05-05 08:52 -26.68159 152.43044 37073 ft 546 kts 141°
2026-05-05 08:52 -26.73758 152.48833 37062 ft 549 kts 141°
2026-05-05 08:53 -26.79330 152.54608 36836 ft 554 kts 141°
2026-05-05 08:53 -26.82167 152.57550 36180 ft 556 kts 140°
2026-05-05 08:53 -26.84992 152.60482 35731 ft 550 kts 140°
2026-05-05 08:53 -26.87799 152.63391 35103 ft 550 kts 140°
2026-05-05 08:54 -26.90611 152.66293 34478 ft 550 kts 140°
2026-05-05 08:54 -26.93428 152.69187 33815 ft 549 kts 140°
2026-05-05 08:54 -26.96243 152.72082 33097 ft 549 kts 140°
2026-05-05 08:54 -26.99041 152.74970 32462 ft 543 kts 140°
2026-05-05 08:55 -27.01761 152.77787 31582 ft 539 kts 141°
2026-05-05 08:55 -27.04532 152.80652 30298 ft 545 kts 141°
2026-05-05 08:55 -27.07370 152.83494 28891 ft 545 kts 147°
2026-05-05 08:55 -27.10583 152.85515 28199 ft 515 kts 167°
2026-05-05 08:56 -27.13917 152.86481 28021 ft 478 kts 179°
2026-05-05 08:56 -27.17115 152.86784 27878 ft 445 kts 190°
2026-05-05 08:56 -27.20068 152.86446 27762 ft 409 kts 204°
2026-05-05 08:56 -27.22739 152.85671 27643 ft 386 kts 206°
2026-05-05 08:57 -27.25252 152.84940 27440 ft 372 kts 205°
2026-05-05 08:57 -27.27755 152.84230 26908 ft 370 kts 205°
2026-05-05 08:57 -27.30248 152.83542 26450 ft 368 kts 202°
2026-05-05 08:57 -27.32861 152.83398 25871 ft 389 kts 180°
2026-05-05 08:58 -27.35508 152.84018 25481 ft 386 kts 175°
2026-05-05 08:58 -27.38114 152.84720 24997 ft 383 kts 175°
2026-05-05 08:58 -27.40689 152.85427 24547 ft 379 kts 175°
2026-05-05 08:58 -27.43240 152.86116 24093 ft 375 kts 175°
2026-05-05 08:59 -27.45763 152.86762 23642 ft 368 kts 180°
2026-05-05 08:59 -27.48198 152.86742 23126 ft 344 kts 202°
2026-05-05 08:59 -27.50317 152.85758 22608 ft 318 kts 226°
2026-05-05 08:59 -27.51782 152.84044 22081 ft 295 kts 247°
2026-05-05 09:00 -27.52722 152.82044 21615 ft 285 kts 256°
2026-05-05 09:00 -27.53081 152.79925 21082 ft 271 kts 279°
2026-05-05 09:00 -27.52528 152.77942 20596 ft 267 kts 304°
2026-05-05 09:00 -27.51188 152.76496 20128 ft 273 kts 328°
2026-05-05 09:01 -27.49332 152.75913 19663 ft 287 kts 353°
2026-05-05 09:01 -27.47352 152.76341 19213 ft 305 kts 18°
2026-05-05 09:01 -27.45589 152.77767 18772 ft 322 kts 43°
2026-05-05 09:01 -27.44430 152.79968 18313 ft 335 kts 68°
2026-05-05 09:02 -27.43962 152.82558 17836 ft 341 kts 84°
2026-05-05 09:02 -27.44120 152.85216 17299 ft 343 kts 104°
2026-05-05 09:02 -27.45139 152.87618 16802 ft 340 kts 129°
2026-05-05 09:02 -27.46875 152.89367 16306 ft 333 kts 154°
2026-05-05 09:03 -27.49013 152.90186 15826 ft 322 kts 179°
2026-05-05 09:03 -27.51186 152.89970 15347 ft 309 kts 204°
2026-05-05 09:03 -27.52970 152.88822 14884 ft 296 kts 228°
2026-05-05 09:03 -27.54102 152.86966 14415 ft 285 kts 253°
2026-05-05 09:04 -27.54354 152.84807 13957 ft 277 kts 279°
2026-05-05 09:04 -27.53696 152.82802 13450 ft 275 kts 306°
2026-05-05 09:04 -27.52282 152.81383 12938 ft 276 kts 332°
2026-05-05 09:04 -27.50494 152.80603 12436 ft 276 kts 341°
2026-05-05 09:05 -27.48666 152.79955 11936 ft 276 kts 342°
2026-05-05 09:05 -27.46821 152.79319 11456 ft 277 kts 342°
2026-05-05 09:05 -27.44988 152.78736 10976 ft 280 kts 351°
2026-05-05 09:05 -27.43052 152.78834 10502 ft 280 kts 12°
2026-05-05 09:06 -27.41161 152.79365 10050 ft 280 kts 15°
2026-05-05 09:06 -27.39278 152.79937 9553 ft 280 kts 16°
2026-05-05 09:06 -27.37397 152.80513 9042 ft 280 kts 16°
2026-05-05 09:06 -27.35520 152.81089 8549 ft 280 kts 16°
2026-05-05 09:07 -27.33648 152.81662 8197 ft 274 kts 16°
2026-05-05 09:07 -27.31818 152.82219 7987 ft 275 kts 16°
2026-05-05 09:07 -27.29995 152.82838 7759 ft 280 kts 26°
2026-05-05 09:07 -27.28455 152.84164 7517 ft 282 kts 54°
2026-05-05 09:08 -27.27618 152.86130 7284 ft 279 kts 81°
2026-05-05 09:08 -27.27666 152.88260 7042 ft 272 kts 108°
2026-05-05 09:08 -27.28544 152.90095 6816 ft 266 kts 134°
2026-05-05 09:08 -27.30023 152.91310 6609 ft 265 kts 156°
2026-05-05 09:09 -27.31806 152.91777 6345 ft 265 kts 179°
2026-05-05 09:09 -27.33644 152.91717 6090 ft 263 kts 182°
2026-05-05 09:09 -27.35463 152.91622 5826 ft 261 kts 183°
2026-05-05 09:09 -27.37241 152.91527 5576 ft 258 kts 183°
2026-05-05 09:10 -27.39026 152.91435 5320 ft 255 kts 183°
2026-05-05 09:10 -27.40791 152.91347 5079 ft 251 kts 182°
2026-05-05 09:10 -27.42518 152.91264 4832 ft 246 kts 183°
2026-05-05 09:10 -27.44206 152.91185 4569 ft 240 kts 183°
2026-05-05 09:11 -27.45859 152.91109 4312 ft 235 kts 182°
2026-05-05 09:11 -27.47476 152.91035 4083 ft 230 kts 183°
2026-05-05 09:11 -27.49028 152.90966 4014 ft 217 kts 183°
2026-05-05 09:11 -27.50491 152.90899 3998 ft 206 kts 183°
2026-05-05 09:12 -27.51908 152.90834 4000 ft 202 kts 183°
2026-05-05 09:12 -27.53267 152.90771 4002 ft 191 kts 183°
2026-05-05 09:12 -27.54551 152.90712 4014 ft 179 kts 183°
2026-05-05 09:12 -27.55764 152.90655 4005 ft 171 kts 183°
2026-05-05 09:13 -27.56936 152.90599 4011 ft 168 kts 184°
2026-05-05 09:13 -27.58109 152.90549 4014 ft 170 kts 180°
2026-05-05 09:13 -27.59193 152.90996 4014 ft 170 kts 136°
2026-05-05 09:13 -27.59925 152.92037 4022 ft 171 kts 129°
2026-05-05 09:14 -27.60648 152.93106 4026 ft 172 kts 129°
2026-05-05 09:14 -27.61180 152.94315 3990 ft 177 kts 95°
2026-05-05 09:14 -27.60863 152.95628 4036 ft 176 kts 67°
2026-05-05 09:14 -27.60349 152.96876 4017 ft 179 kts 67°
2026-05-05 09:15 -27.59760 152.98110 3995 ft 181 kts 50°
2026-05-05 09:15 -27.58716 152.98847 4036 ft 178 kts 29°
2026-05-05 09:15 -27.57631 152.99524 4018 ft 177 kts 30°
2026-05-05 09:15 -27.56552 153.00178 3876 ft 177 kts 30°
2026-05-05 09:16 -27.55463 153.00817 3669 ft 176 kts 27°
2026-05-05 09:16 -27.54383 153.01438 3445 ft 172 kts 27°
2026-05-05 09:16 -27.53325 153.02047 3227 ft 170 kts 27°
2026-05-05 09:16 -27.52291 153.02643 3002 ft 164 kts 27°
2026-05-05 09:17 -27.51301 153.03212 2815 ft 158 kts 27°
2026-05-05 09:17 -27.50349 153.03760 2619 ft 154 kts 27°
2026-05-05 09:17 -27.49402 153.04304 2410 ft 152 kts 27°
2026-05-05 09:17 -27.48460 153.04845 2206 ft 152 kts 27°
2026-05-05 09:18 -27.47517 153.05387 2007 ft 152 kts 27°
2026-05-05 09:18 -27.46576 153.05928 1811 ft 152 kts 27°
2026-05-05 09:18 -27.45637 153.06467 1610 ft 151 kts 27°
2026-05-05 09:18 -27.44706 153.07006 1418 ft 150 kts 29°
2026-05-05 09:19 -27.43788 153.07569 1222 ft 150 kts 29°
2026-05-05 09:19 -27.42869 153.08117 1019 ft 148 kts 27°
2026-05-05 09:19 -27.41961 153.08614 826 ft 147 kts 28°
2026-05-05 09:19 -27.41058 153.09129 641 ft 142 kts 27°
2026-05-05 09:20 -27.40178 153.09626 495 ft 142 kts 28°
2026-05-05 09:20 -27.39286 153.10134 274 ft 145 kts 30°
2026-05-05 09:20 -27.38394 153.10632 82 ft 142 kts 28°
2026-05-05 09:20 -27.37556 153.11111 19 ft 123 kts 27°
2026-05-05 09:21 -27.36968 153.11447 21 ft 42 kts 27°
2026-05-05 09:21 -27.36765 153.11606 19 ft 19 kts 46°
2026-05-05 09:21 -27.36685 153.11718 20 ft 18 kts 57°
2026-05-05 09:21 -27.36651 153.11776 21 ft 0 kts 57°
2026-05-05 09:22 -27.36650 153.11777 21 ft 0 kts 57°
2026-05-05 09:24 -27.36644 153.11788 21 ft 4 kts 58°
2026-05-05 09:24 -27.36628 153.11825 20 ft 6 kts 71°
2026-05-05 09:25 -27.36629 153.11882 20 ft 9 kts 108°
2026-05-05 09:25 -27.36658 153.11924 20 ft 12 kts 145°
2026-05-05 09:25 -27.36744 153.11901 22 ft 16 kts 210°
2026-05-05 09:25 -27.36854 153.11838 20 ft 20 kts 206°
2026-05-05 09:26 -27.36985 153.11763 20 ft 22 kts 207°
2026-05-05 09:26 -27.37158 153.11664 20 ft 21 kts 206°
2026-05-05 09:26 -27.37289 153.11611 23 ft 20 kts 172°
2026-05-05 09:26 -27.37376 153.11724 22 ft 19 kts 117°
2026-05-05 09:27 -27.37417 153.11814 22 ft 19 kts 117°
2026-05-05 09:27 -27.37475 153.11943 22 ft 18 kts 118°
2026-05-05 09:27 -27.37555 153.12118 20 ft 20 kts 117°
2026-05-05 09:27 -27.37596 153.12209 20 ft 20 kts 116°
2026-05-05 09:28 -27.37659 153.12342 20 ft 19 kts 117°
2026-05-05 09:28 -27.37717 153.12472 22 ft 18 kts 117°
2026-05-05 09:28 -27.37791 153.12637 20 ft 17 kts 117°
2026-05-05 09:28 -27.37831 153.12717 20 ft 17 kts 131°
2026-05-05 09:29 -27.37970 153.12675 22 ft 16 kts 206°
2026-05-05 09:29 -27.38037 153.12637 20 ft 16 kts 207°
2026-05-05 09:29 -27.38133 153.12582 20 ft 15 kts 207°
2026-05-05 09:29 -27.38226 153.12529 22 ft 15 kts 207°
2026-05-05 09:30 -27.38269 153.12439 20 ft 14 kts 275°
2026-05-05 09:30 -27.38279 153.12343 23 ft 6 kts 259°
2026-05-05 09:30 -27.38287 153.12294 20 ft 6 kts 259°
2026-05-05 09:30 -27.38289 153.12281 20 ft 0 kts 259°